Regional Weather Roundup
Issued by NWS Northern Indiana

Home | Current Version | Previous Version | Graphics & Text | Print | Product List | Glossary On
Versions: 1 2 3 4 5 6 7 8 9 10 11 12 13 14 15 16 17 18 19 20 21 22 23 24 25 26 27 28 29 30 31 32 33 34 35 36 37 38 39 40 41 42 43 44 45 46 47 48 49 50
000
ASUS43 KIWX 222110
RWRIWX

KIWX WEATHER ROUNDUP
NATIONAL WEATHER SERVICE NORTHERN INDIANA
500 PM EDT FRI JUL 22 2016

NOTE: "FAIR" INDICATES FEW OR NO CLOUDS BELOW 12,000 FEET WITH NO
SIGNIFICANT WEATHER AND/OR OBSTRUCTIONS TO VISIBILITY.

* THESE STATIONS ARE NOT UNDER NWS QUALITY CONTROL. THEY ALSO MAY NOT
  REPORT WEATHER SUCH AS PRECIPITATION OR FOG.

INZ001>027-222200-
NORTHERN INDIANA

CITY           SKY/WX    TMP DP  RH WIND       PRES   REMARKS
GARY*          MOSUNNY   90  79  70 W7        30.00F HX 105
VALPARAISO     MOSUNNY   87  71  58 VRB5      30.00F
MICHIGAN CITY* SUNNY     86  70  58 NW5       30.01F
LAPORTE*       MOSUNNY   88  72  58 W3        30.01F
KNOX*          MOSUNNY   84  63  48 W3        30.00F
SOUTH BEND     SUNNY     85  70  60 VRB6      30.01F
ELKHART*       CLOUDY    88  73  62 W8        30.01F HX  96
GOSHEN         SUNNY     89  66  46 W10       30.00F
MONTICELLO*    MOSUNNY   85  69  60 NW6       30.00F
LOGANSPORT*    PTSUNNY   86  70  58 NW5       30.02S
ROCHESTER*     SUNNY     88  73  62 NW9       30.01F HX  96
WARSAW*        MOSUNNY   86  68  54 NW7       30.01S
ANGOLA*          N/A     90  84  84 SW7       30.00F HX 115
FORT WAYNE     PTSUNNY   89  69  51 SW6       30.00F
HUNTINGTON*    SUNNY    N/A N/A N/A CALM      30.00F
PERU/GRISSOM   PTSUNNY   88  71  56 W7        30.00F
MARION*        MOSUNNY   85  68  55 CALM      30.02F HAZE

$$
INZ028>050-222200-
CENTRAL INDIANA

CITY           SKY/WX    TMP DP  RH WIND       PRES   REMARKS
LAFAYETTE      SUNNY     86  73  65 NW7       30.00F
KOKOMO*        CLOUDY    88  70  55 SW5       30.01S
MUNCIE*        MOSUNNY   88  74  63 NW6       30.02F HX  96
INDIANAPOLIS   PTSUNNY   89  68  49 NW12      30.02F

$$
MIZ043>046-050>051-056>058-064>065-071>073-077>080-222200-
SOUTHWEST LOWER MICHIGAN

CITY           SKY/WX    TMP DP  RH WIND       PRES   REMARKS
BATTLE CREEK   SUNNY     85  70  60 W10       30.01F
BENTON HARBOR  SUNNY     84  68  58 W9        30.00F
COLDWATER*     SUNNY     88  68  51 W6        30.00F
HOLLAND        SUNNY     82  69  64 W10       30.01F
GRAND RAPIDS   MOSUNNY   86  69  56 W10       29.99F
KALAMAZOO      SUNNY     88  68  51 W12       30.00F
STURGIS*       SUNNY     88  70  55 NW8       30.00S
THREE RIVERS*  FAIR      89  67  49 W10       30.00F

$$
OHZ001>008-015>018-024>025-222200-
NORTHWEST OHIO

CITY           SKY/WX    TMP DP  RH WIND       PRES   REMARKS
WAUSEON*       FAIR      90  73  58 W6        29.98F HX  98
DEFIANCE       PTSUNNY   90  70  51 E3        29.98F HX  95
FINDLAY        SUNNY     92  70  48 W8        29.98F HX  97
TOLEDO EXPRESS SUNNY     90  71  53 W6        29.97F HX  96
TOLEDO METCALF SUNNY     92  71  50 SW8       29.97F HX  98
LIMA           PTSUNNY   88  73  61 VRB5      30.00F HX  95

$$
AND FOR LAKE MICHIGAN COASTAL AND OPEN LAKE BUOY OBSERVATIONS

STATION/POSITION TEMP    WIND        PRES    VSBY  WAVE
                 AIR SEA DIR/SP/G                  HT/PER
                 (F)     (DEG/KT/KT) (MB)    (MI)  (FT/S)
CALUMET HARBOR    87     270/  4/ 10 1015.3F
MICHIGAN CITY     80     230/  1/  1   N/A
BURNS HARBOR      80     350/  2/  6 1016.6F
SAINT JOSEPH      80     210/  5/  5 1016.9F
SOUTH LAKE BUOY   74 73  200/  6/  6 1015.0F         1
4 MI NW BRIDGMAN  76 74  160/  2/  4 1015.5F         1
MICHIGAN CITY     81 77   CALM  /  2   N/A           1

$$
&&




USA.gov is the U.S. government's official web portal to all federal, state and local government web resources and services.